Content
SEND FEEDBACK

Daily
Averages
Monthly
Summary
United States of America

TUTKA BAY, ALASKA


Home > North America > United States > Alaska
Elevation: 405 feet     Latitude: 59 26N     Longitude: 151 25W

WEATHER
 
SELECT A DAY
Number of Records: 191,112;   Date Range: 5/2/97 - 8/30/14
 
SHARE

PRINT THIS DATA

[ ← Previous Day ]
WEATHER ALMANAC - JANUARY 23, 2013
[ Next Day → ]
[ °C ]   °F
Weather ElementAverageHighLow
Temperature33.9 °F36 °F (12:53 pm)32 °F (3:53 am)
Dewpoint32.8 °F35.6 °F (1:05 pm)30 °F (10:53 pm)
Humidity96 %100 % (1:05 pm)92 % (12:53 am)
Barometer29.24 in29.34 in (12:53 am)29.19 in (2:53 pm)
Wind Speed0.3 mph3.5 mph (3:53 am)
Weather ElementAverage
Visibility8.1 mi
Wind DirectionNNE (12.8 °)

Weather ElementTotal
Precipitation---
Heating Degree Days31 (Base 65)
Averaged from 25 records on January 23, 2013
WEATHER CONDITIONS BREAKOUT
WIND DIRECTION BREAKOUT
WEATHER BY HOUR - JANUARY 23, 2013
[ °C ]   °F
Local TimeTemperatureDewpointHumidityBarometerVisibilityWind DirectionWind SpeedGust SpeedPrecipitationEventsConditions
12:53 AM34.0 °F32.0 °F92 %29.34 in9.0 miCalmMostly Cloudy
1:53 AM33.1 °F32.0 °F96 %29.32 in10.0 miCalmMostly Cloudy
3:53 AM32.0 °F30.9 °F96 %29.29 in10.0 miSouth (170°)3.5 mphOvercast
4:53 AM33.1 °F30.9 °F92 %29.27 in10.0 miCalmMostly Cloudy
5:53 AM32.0 °F30.9 °F96 %29.25 in10.0 miCalmOvercast
6:53 AM33.1 °F32.0 °F96 %29.24 in8.0 miCalmOvercast
7:53 AM33.1 °F32.0 °F96 %29.23 in8.0 miCalmOvercast
8:53 AM33.1 °F32.0 °F96 %29.23 in8.0 miCalmOvercast
9:53 AM33.1 °F32.0 °F96 %29.23 in6.0 miCalmOvercast
10:53 AM34.0 °F33.1 °F96 %29.23 in10.0 miCalmOvercast
11:53 AM35.1 °F34.0 °F96 %29.23 in6.0 miSSE (150°)3.5 mphOvercast
12:53 PM36.0 °F35.1 °F97 %29.21 in5.0 miCalmOvercast
1:05 PM35.6 °F35.6 °F100 %29.21 in1.8 miCalmOvercast
1:14 PM35.6 °F35.6 °F100 %29.21 in3.0 miCalmOvercast
1:53 PM36.0 °F35.1 °F97 %29.21 in8.0 miCalmOvercast
2:53 PM36.0 °F35.1 °F97 %29.19 in8.0 miCalm0.00 inOvercast
3:53 PM36.0 °F35.1 °F97 %29.19 in10.0 miCalmOvercast
4:53 PM36.0 °F35.1 °F97 %29.20 in10.0 miCalmOvercast
5:53 PM34.0 °F33.1 °F96 %29.21 in4.0 miCalmScattered Clouds
6:53 PM34.0 °F33.1 °F96 %29.21 in9.0 miCalmOvercast
7:53 PM33.1 °F32.0 °F96 %29.22 in10.0 miCalmOvercast
8:53 PM33.1 °F32.0 °F96 %29.24 in10.0 miCalmOvercast
9:53 PM32.0 °F30.9 °F96 %29.25 in10.0 miCalmClear
10:53 PM32.0 °F30.0 °F92 %29.26 in10.0 miCalmMostly Cloudy
11:53 PM32.0 °F30.9 °F96 %29.27 in9.0 miCalmOvercast
Hourly data recorded from PASO, located miles away from Tutka Bay, Alaska







STORIES FROM OUR PARTNERS